Regional Weather Roundup
Issued by NWS

Home | Current Version | Previous Version | Text Only | Print | Product List | Glossary On
Versions: 1 2 3 4 5 6 7 8 9 10 11 12 13 14 15 16 17 18 19 20 21 22 23 24 25 26 27
000
ASCA42 TJSJ 010510
RWRPR
PUERTO RICO/U.S. VIRGIN ISLANDS HOURLY WEATHER ROUNDUP
NATIONAL WEATHER SERVICE SAN JUAN PR
100 AM AST SUN AUG 01 2021

PRZ001>002-007>008-010-010600-
PUERTO RICO

CITY           SKY/WX    TMP DP  RH WIND       PRES   REMARKS
SAN JUAN LMM   PTCLDY    81  75  83 E9        30.09F
AGUADILLA      CLEAR     79  73  83 E6        30.10F
CEIBA          CLEAR     81  77  89 E8        30.09F
$$

VIZ001>002-010600-
U.S. VIRGIN ISLANDS

CITY           SKY/WX    TMP DP  RH WIND       PRES   REMARKS
CHRISTIANSTED  PTCLDY    81  75  83 NE10      30.08F
$$

HOURLY WEATHER ROUNDUP FOR THE NEWS MEDIA

CITY           SKY/WX    TMP DP  RH WIND       PRES   REMARKS
ORLANDO        CLEAR     82  75  79 W6        30.06S
NEW YORK       PTCLDY    67  61  81 SW7       29.96S
NEWARK         PTCLDY    67  58  72 SW5       29.95S
CHICAGO        PTCLDY    71  63  75 W6        29.93S
HARTFORD       CLEAR     55  54  96 CALM      29.94S
BOSTON         CLEAR     68  50  52 W7        29.94R
DALLAS         CLEAR     88  73  61 S9        29.98S HX  95
PHILADELPHIA   MOCLDY    69  59  70 S5        29.95S
LOS ANGELES    PTCLDY    63  59  87 S8        30.01R
WASHINGTON DC  CLOUDY    73  63  70 CALM      29.93F


USA.gov is the U.S. government's official web portal to all federal, state and local government web resources and services.